Location: Hall+in+Tirol
(47.2830°N, 11.5170°E)
Time: 07:46:16
(UTC+01:00)

Gurwin Techsat 1B - Visible Passes

Search period start: 22 February 2018 00:00
Search period end: 04 March 2018 00:00
Orbit: 812 x 814 km, 98.6° (Epoch: 21 February)

Date Brightness Start Highest point End Pass type
(mag) Time Alt. Az. Time Alt. Az. Time Alt. Az.
24 Feb 11.2 03:38:33 10° N 03:38:37 10° N 03:38:37 10° N visible
25 Feb 11.2 03:15:19 10° N 03:15:37 11° N 03:15:37 11° N visible
26 Feb 11.3 02:52:14 10° N 02:52:37 12° N 02:52:37 12° N visible
27 Feb 11.4 02:29:18 10° NNE 02:29:37 12° NNE 02:29:37 12° NNE visible
28 Feb 11.5 02:06:28 10° NNE 02:06:37 11° NNE 02:06:37 11° NNE visible
28 Feb 11.0 03:47:26 10° NNW 03:47:50 12° NNW 03:47:50 12° NNW visible
01 Mar 11.0 03:24:06 10° N 03:24:50 13° N 03:24:50 13° N visible
02 Mar 11.0 03:00:59 10° N 03:01:51 15° N 03:01:51 15° N visible
03 Mar 11.1 02:37:59 10° N 02:38:51 15° N 02:38:51 15° N visible
